Regional Weather Roundup
Issued by NWS Green Bay, WI

Home | Current Version | Previous Version | Graphics & Text | Print | Product List | Glossary Off
Versions: 1 2 3 4 5 6 7 8 9 10 11 12 13 14 15 16 17 18 19 20 21 22 23 24 25 26 27 28 29 30 31 32 33 34 35 36 37 38 39 40 41 42 43 44 45 46 47 48 49 50

000
ASUS43 KGRB 021359
RWRGRB

NORTH-CENTRAL AND NORTHEAST WISCONSIN REGIONAL WEATHER ROUNDUP
NATIONAL WEATHER SERVICE GREEN BAY WI
800 AM CST MON MAR 02 2015

WIZ005-009-010>012-018-019-021500-
NORTH CENTRAL WISCONSIN

CITY           SKY/WX    TMP DP  RH WIND       PRES   REMARKS
IRONWOOD       MOSUNNY    9   1  72 SW5       30.34R WCI   0
MANITOWISH WTR NOT AVBL
ARBOR VITAE    NOT AVBL
EAGLE RIVER    NOT AVBL
LAND O LAKES   NOT AVBL
RHINELANDER    SUNNY      9   2  73 W7        30.36R WCI  -2
PHILLIPS       NOT AVBL
ANTIGO         NOT AVBL
TOMAHAWK       NOT AVBL
MERRILL        NOT AVBL
$$

WIZ013-073-021500-
NORTHEAST WISCONSIN

CITY           SKY/WX    TMP DP  RH WIND       PRES   REMARKS
IRON MOUNTAIN  NOT AVBL
MARINETTE      SUNNY     12   5  73 W5        30.42R WCI   4
$$

WIZ017-030-035>037-045-021500-
CENTRAL WISCONSIN

CITY           SKY/WX    TMP DP  RH WIND       PRES   REMARKS
MEDFORD        NOT AVBL
WAUSAU         MOSUNNY   10   4  76 CALM      30.39S
MOSINEE          N/A      9   5  85 N5        30.40F WCI   0
MARSHFIELD     MOSUNNY    7   1  76 N6        30.41S WCI  -3
WISC RAPIDS    PTSUNNY   10   4  76 NW5       30.45R WCI   2
STEVENS POINT  NOT AVBL
WAUPACA        NOT AVBL
SHAWANO        NOT AVBL
CLINTONVILLE   NOT AVBL
$$

WIZ038-039-048-051-021500-
FOX VALLEY

CITY           SKY/WX    TMP DP  RH WIND       PRES   REMARKS
NWS GREEN BAY  SUNNY     16   8  71 W7        30.45R WCI   6
APPLETON       SUNNY     10   3  72 W8        30.44R WCI  -1
OSHKOSH        MOSUNNY   15   7  70 NW8       30.44S WCI   4
FOND DU LAC    MOSUNNY   15   7  70 NW10      30.44S WCI   2
$$

WIZ022-050-052-021500-
EAST CENTRAL WISCONSIN

CITY           SKY/WX    TMP DP  RH WIND       PRES   REMARKS
STURGEON BAY   SUNNY     14   7  73 W6        30.44R WCI   5
MANITOWOC      NOT AVBL
SHEBOYGAN      SUNNY     16   7  67 NW7       30.44R WCI   6
$$

LMZ563-521-522-541>543-021500-
LAKESHORE

STATION/POSITION TIME  TEMP    WIND        PRES    VSBY  WAVE
                       AIR SEA DIR/SP/G                  HT/PER
                 (UTC) (F)     (DEG/KT/KT) (MB)    (MI)  (FT/S)
SHEBOYGAN LKSHOR 1300   16     290/ 12/ 14 1031.9R
KEWAUNEE LKSHORE 1300   14     300/  5/  9 1029.5R
NORTHPORT PIER   1300   17     300/  9/ 15 1028.8S
SISTER BAY LKSHO 1300   17        CALM       N/A
STURGEON BAY CG  1300    8     270/  3     1033.1      6   1
CHAMBERS ISLAND  1300   15     240/  5/  7 1029.8R
MENOMINEE LKSHOR 1300   14     250/  6     1030.4R
$$



USA.gov is the U.S. government's official web portal to all federal, state and local government web resources and services.